TimeICT,TemperatureF,Dew PointF,Humidity,Sea Level PressureIn,VisibilityMPH,Wind Direction,Wind SpeedMPH,Gust SpeedMPH,PrecipitationIn,Events,Conditions,WindDirDegrees,DateUTC
12:00 AM,77.0,73.4,89,29.77,5.0,Variable,1.2,-,N/A,,Mostly Cloudy,0,2012-10-26 17:00:00
12:30 AM,77.0,73.4,89,29.80,5.0,East,5.8,-,N/A,,Mostly Cloudy,90,2012-10-26 17:30:00
1:00 AM,78,75,88,29.76,6,Calm,Calm,,,,Partly Cloudy,,2012-10-26 18:00:00
1:00 AM,77.0,73.4,89,29.77,5.0,East,4.6,-,N/A,,Mostly Cloudy,80,2012-10-26 18:00:00
1:30 AM,77.0,73.4,89,29.77,5.0,Variable,1.2,-,N/A,,Mostly Cloudy,0,2012-10-26 18:30:00
2:00 AM,77.0,73.4,89,29.77,5.0,Calm,Calm,-,N/A,,Mostly Cloudy,0,2012-10-26 19:00:00
2:30 AM,77.0,75.2,94,29.77,5.0,Variable,2.3,-,N/A,,Mostly Cloudy,0,2012-10-26 19:30:00
3:00 AM,77.0,75.2,94,29.74,5.0,Variable,1.2,-,N/A,,Mostly Cloudy,0,2012-10-26 20:00:00
3:30 AM,77.0,75.2,94,29.74,5.0,Variable,1.2,-,N/A,,Mostly Cloudy,0,2012-10-26 20:30:00
4:00 AM,77.0,75.2,94,29.74,5.0,Variable,2.3,-,N/A,,Mostly Cloudy,0,2012-10-26 21:00:00
4:30 AM,77.0,73.4,89,29.74,5.0,Variable,2.3,-,N/A,,Mostly Cloudy,0,2012-10-26 21:30:00
5:00 AM,77.0,73.4,89,29.74,5.0,East,3.5,-,N/A,,Mostly Cloudy,100,2012-10-26 22:00:00
5:30 AM,77.0,73.4,89,29.74,5.0,Calm,Calm,-,N/A,,Mostly Cloudy,0,2012-10-26 22:30:00
6:00 AM,77.0,75.2,94,29.77,5.0,East,4.6,-,N/A,,Mostly Cloudy,80,2012-10-26 23:00:00
6:30 AM,77.0,75.2,94,29.77,5.0,ENE,3.5,-,N/A,,Mostly Cloudy,70,2012-10-26 23:30:00
7:00 AM,77,76,94,29.75,6,Calm,Calm,,,,Scattered Clouds,,2012-10-27 00:00:00
7:00 AM,77.0,75.2,94,29.77,5.0,Variable,2.3,-,N/A,,Mostly Cloudy,0,2012-10-27 00:00:00
7:30 AM,78.8,75.2,89,29.77,5.0,Calm,Calm,-,N/A,,Mostly Cloudy,0,2012-10-27 00:30:00
8:00 AM,80.6,75.2,84,29.80,5.6,ENE,3.5,-,N/A,,Mostly Cloudy,70,2012-10-27 01:00:00
8:30 AM,82.4,75.2,79,29.80,5.6,East,4.6,-,N/A,,Mostly Cloudy,80,2012-10-27 01:30:00
9:00 AM,82.4,75.2,79,29.80,5.6,East,6.9,-,N/A,,Mostly Cloudy,80,2012-10-27 02:00:00
9:30 AM,84.2,75.2,74,29.80,5.6,East,10.4,-,N/A,,Mostly Cloudy,80,2012-10-27 02:30:00
10:00 AM,84.2,73.4,70,29.80,5.6,East,10.4,-,N/A,,Mostly Cloudy,80,2012-10-27 03:00:00
10:30 AM,86.0,75.2,70,29.80,5.6,East,9.2,-,N/A,,Mostly Cloudy,90,2012-10-27 03:30:00
11:00 AM,86.0,73.4,66,29.80,5.6,East,9.2,-,N/A,,Mostly Cloudy,80,2012-10-27 04:00:00
11:30 AM,86.0,73.4,66,29.77,5.6,ENE,9.2,-,N/A,,Mostly Cloudy,70,2012-10-27 04:30:00
12:00 PM,87.8,75.2,66,29.77,5.6,ENE,6.9,-,N/A,,Mostly Cloudy,70,2012-10-27 05:00:00
12:30 PM,87.8,73.4,62,29.74,6.2,ENE,6.9,-,N/A,,Scattered Clouds,70,2012-10-27 05:30:00
1:00 PM,89,76,57,29.74,6,East,5.8,,,,Scattered Clouds,100,2012-10-27 06:00:00
1:00 PM,87.8,73.4,62,29.74,6.2,East,6.9,-,N/A,,Scattered Clouds,90,2012-10-27 06:00:00
1:30 PM,87.8,73.4,62,29.71,6.2,East,8.1,-,N/A,,Scattered Clouds,90,2012-10-27 06:30:00
2:00 PM,87.8,73.4,62,29.71,6.2,ESE,5.8,-,N/A,,Scattered Clouds,110,2012-10-27 07:00:00
3:00 PM,89.6,71.6,55,29.68,6.2,East,6.9,-,N/A,,Scattered Clouds,90,2012-10-27 08:00:00
3:30 PM,89.6,69.8,52,29.68,6.2,ESE,5.8,-,N/A,,Scattered Clouds,110,2012-10-27 08:30:00
4:00 PM,87.8,75.2,66,29.68,6.2,WSW,9.2,-,N/A,,Scattered Clouds,240,2012-10-27 09:00:00
4:30 PM,86.0,75.2,70,29.68,6.2,WSW,9.2,-,N/A,,Scattered Clouds,240,2012-10-27 09:30:00
5:00 PM,86.0,73.4,66,29.68,6.2,SW,9.2,-,N/A,,Scattered Clouds,230,2012-10-27 10:00:00
5:30 PM,84.2,75.2,74,29.68,6.2,SW,8.1,-,N/A,,Scattered Clouds,220,2012-10-27 10:30:00
6:00 PM,84.2,75.2,74,29.71,5.6,SSW,5.8,-,N/A,,Scattered Clouds,210,2012-10-27 11:00:00
6:30 PM,82.4,75.2,79,29.74,5.6,Calm,Calm,-,N/A,,Scattered Clouds,0,2012-10-27 11:30:00
7:00 PM,83,77,78,29.69,6,Calm,Calm,,,,Scattered Clouds,,2012-10-27 12:00:00
7:00 PM,80.6,75.2,84,29.74,5.6,Calm,Calm,-,N/A,,Scattered Clouds,0,2012-10-27 12:00:00
7:30 PM,82.4,75.2,79,29.77,5.6,Variable,2.3,-,N/A,,Scattered Clouds,0,2012-10-27 12:30:00
8:00 PM,80.6,75.2,84,29.77,5.6,Variable,2.3,-,N/A,,Scattered Clouds,0,2012-10-27 13:00:00
8:30 PM,80.6,75.2,84,29.77,5.6,West,4.6,-,N/A,,Scattered Clouds,270,2012-10-27 13:30:00
9:00 PM,80.6,75.2,84,29.80,5.6,WNW,6.9,-,N/A,,Scattered Clouds,300,2012-10-27 14:00:00
9:30 PM,80.6,75.2,84,29.83,5.0,Calm,Calm,-,N/A,,Mostly Cloudy,0,2012-10-27 14:30:00
10:00 PM,78.8,71.6,78,29.83,3.1,East,11.5,-,N/A,Rain,Rain,80,2012-10-27 15:00:00
10:30 PM,75.2,71.6,89,29.80,4.3,ENE,6.9,-,N/A,,Mostly Cloudy,70,2012-10-27 15:30:00
11:00 PM,77.0,73.4,89,29.80,5.0,East,3.5,-,N/A,,Mostly Cloudy,100,2012-10-27 16:00:00
11:30 PM,77.0,73.4,89,29.80,5.0,ESE,3.5,-,N/A,,Mostly Cloudy,120,2012-10-27 16:30:00